Time,TemperatureF,DewpointF,PressureIn,WindDirection,WindDirectionDegrees,WindSpeedMPH,WindSpeedGustMPH,Humidity,HourlyPrecipIn,Conditions,Clouds,dailyrainin,SoftwareType,DateUTC
2013-04-11 00:00:00,74.5,32.0,29.15,North,357,2.7,2.7,21,0.00,,,0.00,VWS V14.01,2013-04-11 04:00:00,
2013-04-11 00:01:00,74.5,32.0,29.15,NW,325,3.1,4.0,21,0.00,,,0.00,VWS V14.01,2013-04-11 04:01:00,
2013-04-11 00:06:00,74.5,32.0,29.18,NE,49,3.1,3.1,21,0.00,,,0.00,VWS V14.01,2013-04-11 04:06:00,
2013-04-11 00:11:00,74.3,31.9,29.18,ENE,60,0.0,2.7,21,0.00,,,0.00,VWS V14.01,2013-04-11 04:11:00,
2013-04-11 00:16:00,73.8,32.6,29.18,ENE,75,0.0,2.2,22,0.00,,,0.00,VWS V14.01,2013-04-11 04:16:00,
2013-04-11 00:22:00,73.2,32.1,29.18,North,3,3.6,3.6,22,0.00,,,0.00,VWS V14.01,2013-04-11 04:22:00,
2013-04-11 00:27:00,72.9,31.8,29.18,WNW,284,2.2,2.7,22,0.00,,,0.00,VWS V14.01,2013-04-11 04:27:00,
2013-04-11 00:32:00,72.7,31.7,29.18,NNE,16,3.1,3.6,22,0.00,,,0.00,VWS V14.01,2013-04-11 04:32:00,
2013-04-11 00:37:00,72.3,31.4,29.18,East,99,2.2,2.2,22,0.00,,,0.00,VWS V14.01,2013-04-11 04:37:00,
2013-04-11 00:42:00,72.0,31.1,29.18,NNE,26,0.0,0.0,22,0.00,,,0.00,VWS V14.01,2013-04-11 04:42:00,
2013-04-11 00:47:00,71.8,32.0,29.18,East,96,2.7,2.7,23,0.00,,,0.00,VWS V14.01,2013-04-11 04:47:00,
2013-04-11 00:52:00,71.4,31.7,29.18,ENE,69,0.0,0.0,23,0.00,,,0.00,VWS V14.01,2013-04-11 04:52:00,
2013-04-11 00:57:00,71.2,31.6,29.18,WNW,296,0.0,0.0,23,0.00,,,0.00,VWS V14.01,2013-04-11 04:57:00,
2013-04-11 01:02:00,71.1,31.4,29.18,ENE,57,0.0,0.0,23,0.00,,,0.00,VWS V14.01,2013-04-11 05:02:00,
2013-04-11 01:07:00,70.9,32.3,29.18,NNE,14,0.0,0.0,24,0.00,,,0.00,VWS V14.01,2013-04-11 05:07:00,
2013-04-11 01:12:00,70.5,32.0,29.18,NNE,16,0.0,0.0,24,0.00,,,0.00,VWS V14.01,2013-04-11 05:12:00,
2013-04-11 01:17:00,70.3,31.9,29.18,NNW,338,0.0,2.7,24,0.00,,,0.00,VWS V14.01,2013-04-11 05:17:00,
2013-04-11 01:22:00,70.2,31.7,29.18,NNW,338,0.0,0.0,24,0.00,,,0.00,VWS V14.01,2013-04-11 05:22:00,
2013-04-11 01:27:00,70.0,31.6,29.18,West,280,0.0,0.0,24,0.00,,,0.00,VWS V14.01,2013-04-11 05:27:00,
2013-04-11 01:32:00,69.8,31.4,29.18,West,279,0.0,0.0,24,0.00,,,0.00,VWS V14.01,2013-04-11 05:32:00,
2013-04-11 01:37:00,69.6,32.3,29.18,West,279,0.0,0.0,25,0.00,,,0.00,VWS V14.01,2013-04-11 05:37:00,
2013-04-11 01:42:00,69.4,32.1,29.18,West,279,0.0,0.0,25,0.00,,,0.00,VWS V14.01,2013-04-11 05:42:00,
2013-04-11 01:47:00,69.3,32.0,29.18,West,279,0.0,0.0,25,0.00,,,0.00,VWS V14.01,2013-04-11 05:47:00,
2013-04-11 01:52:00,68.9,31.7,29.18,West,279,0.0,0.0,25,0.00,,,0.00,VWS V14.01,2013-04-11 05:52:00,
2013-04-11 01:57:00,68.7,31.5,29.18,West,279,0.0,0.0,25,0.00,,,0.00,VWS V14.01,2013-04-11 05:57:00,
2013-04-11 02:02:00,68.5,32.3,29.18,West,279,0.0,0.0,26,0.00,,,0.00,VWS V14.01,2013-04-11 06:02:00,
2013-04-11 02:07:00,68.4,32.2,29.18,West,279,0.0,0.0,26,0.00,,,0.00,VWS V14.01,2013-04-11 06:07:00,
2013-04-11 02:12:00,68.4,32.2,29.18,West,279,0.0,0.0,26,0.00,,,0.00,VWS V14.01,2013-04-11 06:12:00,
2013-04-11 02:17:00,68.0,31.9,29.18,West,279,0.0,0.0,26,0.00,,,0.00,VWS V14.01,2013-04-11 06:17:00,
2013-04-11 02:22:00,67.6,32.5,29.18,West,279,0.0,0.0,27,0.00,,,0.00,VWS V14.01,2013-04-11 06:22:00,
2013-04-11 02:27:00,67.6,32.5,29.18,West,279,0.0,0.0,27,0.00,,,0.00,VWS V14.01,2013-04-11 06:27:00,
2013-04-11 02:32:00,67.3,32.2,29.18,West,279,0.0,0.0,27,0.00,,,0.00,VWS V14.01,2013-04-11 06:32:00,
2013-04-11 02:37:00,66.9,32.8,29.18,NW,325,0.0,0.0,28,0.00,,,0.00,VWS V14.01,2013-04-11 06:37:00,
2013-04-11 02:42:00,66.7,32.6,29.18,NW,325,0.0,0.0,28,0.00,,,0.00,VWS V14.01,2013-04-11 06:42:00,
2013-04-11 02:47:00,66.6,32.5,29.18,NW,325,0.0,0.0,28,0.00,,,0.00,VWS V14.01,2013-04-11 06:47:00,
2013-04-11 02:52:00,66.2,33.0,29.18,NW,325,0.0,0.0,29,0.00,,,0.00,VWS V14.01,2013-04-11 06:52:00,
2013-04-11 02:57:00,66.0,33.7,29.18,NW,325,0.0,0.0,30,0.00,,,0.00,VWS V14.01,2013-04-11 06:57:00,
2013-04-11 03:02:00,65.8,33.6,29.18,NW,325,0.0,0.0,30,0.00,,,0.00,VWS V14.01,2013-04-11 07:02:00,
2013-04-11 03:07:00,65.5,34.1,29.18,NW,325,0.0,0.0,31,0.00,,,0.00,VWS V14.01,2013-04-11 07:07:00,
2013-04-11 03:12:00,65.3,33.9,29.18,NW,325,0.0,0.0,31,0.00,,,0.00,VWS V14.01,2013-04-11 07:12:00,
2013-04-11 03:17:00,65.1,34.6,29.18,NW,325,0.0,0.0,32,0.00,,,0.00,VWS V14.01,2013-04-11 07:17:00,
2013-04-11 15:17:00,85.8,37.5,29.06,East,87,2.2,2.2,18,0.00,,,0.00,VWS V14.01,2013-04-11 19:17:00,
2013-04-11 15:22:00,85.6,37.3,29.06,SE,136,0.0,0.0,18,0.00,,,0.00,VWS V14.01,2013-04-11 19:22:00,
2013-04-11 15:27:00,85.6,37.3,29.06,ESE,112,5.4,5.4,18,0.00,,,0.00,VWS V14.01,2013-04-11 19:27:00,
2013-04-11 15:33:00,86.2,37.8,29.06,ESE,109,3.1,3.1,18,0.00,,,0.00,VWS V14.01,2013-04-11 19:33:00,
2013-04-11 15:38:00,86.4,37.9,29.06,ESE,114,4.9,5.8,18,0.00,,,0.00,VWS V14.01,2013-04-11 19:38:00,
2013-04-11 15:43:00,85.8,37.5,29.06,ESE,110,2.7,2.7,18,0.00,,,0.00,VWS V14.01,2013-04-11 19:43:00,
2013-04-11 15:48:00,85.5,37.2,29.06,SE,142,2.7,3.6,18,0.00,,,0.00,VWS V14.01,2013-04-11 19:48:00,
2013-04-11 15:53:00,85.5,37.2,29.06,ESE,116,0.0,0.0,18,0.00,,,0.00,VWS V14.01,2013-04-11 19:53:00,
2013-04-11 15:58:00,85.3,37.0,29.06,ESE,103,0.0,0.0,18,0.00,,,0.00,VWS V14.01,2013-04-11 19:58:00,
2013-04-11 16:03:00,85.1,36.9,29.03,ESE,106,3.1,3.1,18,0.00,,,0.00,VWS V14.01,2013-04-11 20:03:00,
2013-04-11 16:08:00,84.9,36.7,29.03,SSE,159,3.6,5.4,18,0.00,,,0.00,VWS V14.01,2013-04-11 20:08:00,
2013-04-11 16:13:00,84.7,36.6,29.03,East,98,2.7,2.7,18,0.00,,,0.00,VWS V14.01,2013-04-11 20:13:00,
2013-04-11 16:18:00,84.7,36.6,29.03,ESE,115,3.1,3.1,18,0.00,,,0.00,VWS V14.01,2013-04-11 20:18:00,
2013-04-11 16:23:00,84.6,37.8,29.03,SSE,150,3.6,3.6,19,0.00,,,0.00,VWS V14.01,2013-04-11 20:23:00,
2013-04-11 16:28:00,84.6,36.4,29.03,East,94,2.2,3.6,18,0.00,,,0.00,VWS V14.01,2013-04-11 20:28:00,
2013-04-11 16:33:00,84.6,36.4,29.03,ESE,110,0.0,0.0,18,0.00,,,0.00,VWS V14.01,2013-04-11 20:33:00,
2013-04-11 16:38:00,84.6,36.4,29.03,NNW,346,0.0,0.0,18,0.00,,,0.00,VWS V14.01,2013-04-11 20:38:00,
2013-04-11 16:43:00,84.6,36.4,29.03,East,97,0.0,0.0,18,0.00,,,0.00,VWS V14.01,2013-04-11 20:43:00,
2013-04-11 16:48:00,84.4,36.3,29.03,East,86,0.0,0.0,18,0.00,,,0.00,VWS V14.01,2013-04-11 20:48:00,
2013-04-11 16:53:00,84.2,36.2,29.03,East,87,0.0,3.1,18,0.00,,,0.00,VWS V14.01,2013-04-11 20:53:00,
2013-04-11 16:58:00,83.8,37.2,29.03,East,87,2.2,2.2,19,0.00,,,0.00,VWS V14.01,2013-04-11 20:58:00,
2013-04-11 17:03:00,83.7,37.1,29.03,ESE,105,0.0,0.0,19,0.00,,,0.00,VWS V14.01,2013-04-11 21:03:00,
2013-04-11 17:08:00,83.3,36.8,29.03,ESE,108,3.6,3.6,19,0.00,,,0.00,VWS V14.01,2013-04-11 21:08:00,
2013-04-11 17:13:00,83.1,36.6,29.03,East,95,2.7,2.7,19,0.00,,,0.00,VWS V14.01,2013-04-11 21:13:00,
2013-04-11 17:18:00,82.8,36.3,29.03,East,87,0.0,2.7,19,0.00,,,0.00,VWS V14.01,2013-04-11 21:18:00,
2013-04-11 17:23:00,82.4,36.0,29.03,ENE,59,0.0,0.0,19,0.00,,,0.00,VWS V14.01,2013-04-11 21:23:00,
2013-04-11 17:28:00,82.2,37.2,29.03,SSW,209,0.0,2.2,20,0.00,,,0.00,VWS V14.01,2013-04-11 21:28:00,
2013-04-11 17:33:00,82.0,37.0,29.03,South,171,0.0,3.1,20,0.00,,,0.00,VWS V14.01,2013-04-11 21:33:00,
2013-04-11 17:38:00,81.7,36.8,29.03,SSE,152,2.2,2.7,20,0.00,,,0.00,VWS V14.01,2013-04-11 21:38:00,
2013-04-11 17:43:00,81.3,36.5,29.03,ESE,117,0.0,0.0,20,0.00,,,0.00,VWS V14.01,2013-04-11 21:43:00,
2013-04-11 17:48:00,81.1,36.3,29.00,East,87,0.0,0.0,20,0.00,,,0.00,VWS V14.01,2013-04-11 21:48:00,
2013-04-11 17:53:00,81.0,36.2,29.00,East,82,0.0,2.2,20,0.00,,,0.00,VWS V14.01,2013-04-11 21:53:00,
2013-04-11 17:58:00,80.8,36.0,29.00,ESE,110,3.6,3.6,20,0.00,,,0.00,VWS V14.01,2013-04-11 21:58:00,
2013-04-11 18:03:00,80.8,36.0,29.03,ESE,103,2.7,4.0,20,0.00,,,0.00,VWS V14.01,2013-04-11 22:03:00,
2013-04-11 18:08:00,80.6,35.9,29.03,SE,128,0.0,3.6,20,0.00,,,0.00,VWS V14.01,2013-04-11 22:08:00,
2013-04-11 18:13:00,80.4,35.7,29.03,South,176,2.2,3.6,20,0.00,,,0.00,VWS V14.01,2013-04-11 22:13:00,
2013-04-11 18:18:00,80.2,35.6,29.00,ESE,110,5.4,5.4,20,0.00,,,0.00,VWS V14.01,2013-04-11 22:18:00,
2013-04-11 18:23:00,80.1,35.4,29.00,ESE,118,3.1,3.1,20,0.00,,,0.00,VWS V14.01,2013-04-11 22:23:00,
2013-04-11 18:28:00,79.7,35.1,29.00,East,90,0.0,2.7,20,0.00,,,0.00,VWS V14.01,2013-04-11 22:28:00,
2013-04-11 18:33:00,79.5,35.0,29.00,East,96,3.6,3.6,20,0.00,,,0.00,VWS V14.01,2013-04-11 22:33:00,
2013-04-11 18:38:00,79.3,34.8,29.00,ESE,108,2.2,2.2,20,0.00,,,0.00,VWS V14.01,2013-04-11 22:38:00,
2013-04-11 18:43:00,79.3,34.8,29.00,ESE,123,2.7,4.0,20,0.00,,,0.00,VWS V14.01,2013-04-11 22:43:00,
2013-04-11 18:48:00,79.2,34.7,29.00,SE,126,0.0,0.0,20,0.00,,,0.00,VWS V14.01,2013-04-11 22:48:00,
2013-04-11 18:53:00,79.0,34.5,29.00,ESE,119,0.0,0.0,20,0.00,,,0.00,VWS V14.01,2013-04-11 22:53:00,
2013-04-11 18:58:00,78.6,34.2,29.00,NE,53,0.0,2.2,20,0.00,,,0.00,VWS V14.01,2013-04-11 22:58:00,
2013-04-11 19:03:00,78.4,34.1,29.00,ESE,107,0.0,4.0,20,0.00,,,0.00,VWS V14.01,2013-04-11 23:03:00,
2013-04-11 19:08:00,78.3,33.9,29.00,ESE,112,3.1,3.1,20,0.00,,,0.00,VWS V14.01,2013-04-11 23:08:00,
2013-04-11 19:13:00,78.1,33.8,29.00,ESE,115,3.1,3.6,20,0.00,,,0.00,VWS V14.01,2013-04-11 23:13:00,
2013-04-11 19:18:00,77.9,33.6,29.00,East,92,0.0,0.0,20,0.00,,,0.00,VWS V14.01,2013-04-11 23:18:00,
2013-04-11 19:23:00,77.7,33.5,29.00,East,82,2.2,3.6,20,0.00,,,0.00,VWS V14.01,2013-04-11 23:23:00,
2013-04-11 19:28:00,77.5,33.3,29.00,East,83,0.0,3.6,20,0.00,,,0.00,VWS V14.01,2013-04-11 23:28:00,
2013-04-11 19:33:00,77.2,33.0,29.00,ESE,106,2.7,3.1,20,0.00,,,0.00,VWS V14.01,2013-04-11 23:33:00,
2013-04-11 19:38:00,77.0,32.9,29.00,SE,133,0.0,4.9,20,0.00,,,0.00,VWS V14.01,2013-04-11 23:38:00,
2013-04-11 19:43:00,76.8,32.8,29.00,ESE,117,0.0,3.1,20,0.00,,,0.00,VWS V14.01,2013-04-11 23:43:00,
2013-04-11 19:48:00,76.6,32.6,29.00,East,94,2.7,3.1,20,0.00,,,0.00,VWS V14.01,2013-04-11 23:48:00,
2013-04-11 19:53:00,76.5,32.5,29.00,ESE,105,4.0,4.0,20,0.00,,,0.00,VWS V14.01,2013-04-11 23:53:00,
2013-04-11 19:58:00,76.1,32.2,29.00,East,95,0.0,2.7,20,0.00,,,0.00,VWS V14.01,2013-04-11 23:58:00,
2013-04-11 20:03:00,75.9,32.0,29.00,SSW,197,3.1,4.0,20,0.00,,,0.00,VWS V14.01,2013-04-12 00:03:00,
2013-04-11 20:08:00,75.7,31.9,29.00,ESE,106,0.0,0.0,20,0.00,,,0.00,VWS V14.01,2013-04-12 00:08:00,
2013-04-11 20:13:00,75.6,31.7,29.00,ESE,106,0.0,0.0,20,0.00,,,0.00,VWS V14.01,2013-04-12 00:13:00,
2013-04-11 20:18:00,75.6,31.7,29.00,East,88,0.0,3.6,20,0.00,,,0.00,VWS V14.01,2013-04-12 00:18:00,
2013-04-11 20:23:00,75.4,31.6,29.00,ESE,110,0.0,3.6,20,0.00,,,0.00,VWS V14.01,2013-04-12 00:23:00,
2013-04-11 20:28:00,75.4,31.6,29.00,ESE,106,5.4,5.4,20,0.00,,,0.00,VWS V14.01,2013-04-12 00:28:00,
2013-04-11 20:33:00,75.4,31.6,29.00,ESE,122,2.7,6.3,20,0.00,,,0.00,VWS V14.01,2013-04-12 00:33:00,
2013-04-11 20:38:00,75.2,31.4,29.00,ESE,103,3.6,5.4,20,0.00,,,0.00,VWS V14.01,2013-04-12 00:38:00,
2013-04-11 20:43:00,75.2,31.4,29.00,ESE,110,3.1,3.1,20,0.00,,,0.00,VWS V14.01,2013-04-12 00:43:00,
2013-04-11 20:48:00,75.0,32.5,29.03,SE,124,3.6,6.3,21,0.00,,,0.00,VWS V14.01,2013-04-12 00:48:00,
2013-04-11 20:53:00,74.8,32.3,29.03,SE,125,2.7,4.0,21,0.00,,,0.00,VWS V14.01,2013-04-12 00:53:00,
2013-04-11 20:58:00,74.8,32.3,29.03,ESE,113,3.1,5.4,21,0.00,,,0.00,VWS V14.01,2013-04-12 00:58:00,
2013-04-11 21:03:00,74.7,32.2,29.03,East,96,0.0,0.0,21,0.00,,,0.00,VWS V14.01,2013-04-12 01:03:00,
2013-04-11 21:08:00,74.5,32.0,29.03,East,100,3.1,4.9,21,0.00,,,0.00,VWS V14.01,2013-04-12 01:08:00,
2013-04-11 21:13:00,74.3,31.9,29.03,ESE,106,4.0,6.3,21,0.00,,,0.00,VWS V14.01,2013-04-12 01:13:00,
2013-04-11 21:18:00,74.3,33.0,29.03,ESE,107,3.1,5.4,22,0.00,,,0.00,VWS V14.01,2013-04-12 01:18:00,
2013-04-11 21:23:00,74.3,33.0,29.03,SE,127,3.6,5.8,22,0.00,,,0.00,VWS V14.01,2013-04-12 01:23:00,
2013-04-11 21:28:00,74.1,32.9,29.03,ESE,114,3.1,5.4,22,0.00,,,0.00,VWS V14.01,2013-04-12 01:28:00,
2013-04-11 21:33:00,74.1,32.9,29.03,SE,124,5.4,5.4,22,0.00,,,0.00,VWS V14.01,2013-04-12 01:33:00,
2013-04-11 21:38:00,74.1,32.9,29.03,ESE,104,0.0,4.0,22,0.00,,,0.00,VWS V14.01,2013-04-12 01:38:00,
2013-04-11 21:43:00,74.1,34.0,29.03,East,96,2.2,4.0,23,0.00,,,0.00,VWS V14.01,2013-04-12 01:43:00,
2013-04-11 21:48:00,73.8,33.7,29.03,ESE,105,4.0,6.3,23,0.00,,,0.00,VWS V14.01,2013-04-12 01:48:00,
2013-04-11 21:53:00,72.7,34.9,29.03,ENE,74,3.6,3.6,25,0.00,,,0.00,VWS V14.01,2013-04-12 01:53:00,
2013-04-11 21:58:00,71.8,35.1,29.03,East,90,0.0,4.0,26,0.00,,,0.00,VWS V14.01,2013-04-12 01:58:00,
2013-04-11 22:03:00,70.9,36.2,29.03,East,89,3.6,4.0,28,0.00,,,0.00,VWS V14.01,2013-04-12 02:03:00,
2013-04-11 22:08:00,69.8,37.0,29.03,East,79,2.7,3.6,30,0.00,,,0.00,VWS V14.01,2013-04-12 02:08:00,
2013-04-11 22:13:00,69.3,38.2,29.03,East,94,2.7,2.7,32,0.00,,,0.00,VWS V14.01,2013-04-12 02:13:00,
2013-04-11 22:18:00,68.5,37.5,29.03,East,96,2.2,2.2,32,0.00,,,0.00,VWS V14.01,2013-04-12 02:18:00,
2013-04-11 22:23:00,68.0,37.8,29.03,East,99,2.7,3.6,33,0.00,,,0.00,VWS V14.01,2013-04-12 02:23:00,
2013-04-11 22:28:00,67.6,37.5,29.03,South,175,3.6,5.8,33,0.00,,,0.00,VWS V14.01,2013-04-12 02:28:00,
2013-04-11 22:33:00,67.3,37.2,29.03,East,96,0.0,3.6,33,0.00,,,0.00,VWS V14.01,2013-04-12 02:33:00,
2013-04-11 22:38:00,67.1,37.1,29.03,East,98,0.0,3.1,33,0.00,,,0.00,VWS V14.01,2013-04-12 02:38:00,
2013-04-11 22:43:00,66.9,37.7,29.03,East,94,2.7,3.6,34,0.00,,,0.00,VWS V14.01,2013-04-12 02:43:00,
2013-04-11 22:48:00,66.6,37.3,29.03,East,98,0.0,2.2,34,0.00,,,0.00,VWS V14.01,2013-04-12 02:48:00,
2013-04-11 22:53:00,66.4,37.2,29.03,East,93,0.0,0.0,34,0.00,,,0.00,VWS V14.01,2013-04-12 02:53:00,
2013-04-11 22:58:00,66.2,37.0,29.03,East,93,0.0,0.0,34,0.00,,,0.00,VWS V14.01,2013-04-12 02:58:00,
2013-04-11 23:03:00,65.7,37.3,29.06,NE,55,0.0,0.0,35,0.00,,,0.00,VWS V14.01,2013-04-12 03:03:00,
2013-04-11 23:08:00,64.9,36.7,29.06,NE,42,0.0,0.0,35,0.00,,,0.00,VWS V14.01,2013-04-12 03:08:00,
2013-04-11 23:13:00,64.8,37.2,29.06,NE,45,0.0,0.0,36,0.00,,,0.00,VWS V14.01,2013-04-12 03:13:00,
2013-04-11 23:18:00,64.2,37.4,29.06,NE,35,0.0,0.0,37,0.00,,,0.00,VWS V14.01,2013-04-12 03:18:00,
2013-04-11 23:23:00,64.2,37.4,29.06,North,357,0.0,0.0,37,0.00,,,0.00,VWS V14.01,2013-04-12 03:23:00,
2013-04-11 23:28:00,63.9,37.1,29.06,NE,55,0.0,2.2,37,0.00,,,0.00,VWS V14.01,2013-04-12 03:28:00,
2013-04-11 23:33:00,63.5,37.5,29.06,NE,46,0.0,0.0,38,0.00,,,0.00,VWS V14.01,2013-04-12 03:33:00,
2013-04-11 23:38:00,63.1,37.1,29.06,NE,47,0.0,0.0,38,0.00,,,0.00,VWS V14.01,2013-04-12 03:38:00,
2013-04-11 23:43:00,62.8,37.5,29.06,SW,214,0.0,0.0,39,0.00,,,0.00,VWS V14.01,2013-04-12 03:43:00,
2013-04-11 23:48:00,62.1,37.5,29.06,WSW,244,0.0,0.0,40,0.00,,,0.00,VWS V14.01,2013-04-12 03:48:00,
2013-04-11 23:53:00,61.7,38.4,29.06,West,262,0.0,0.0,42,0.00,,,0.00,VWS V14.01,2013-04-12 03:53:00,
2013-04-11 23:58:00,61.3,38.7,29.06,NW,316,0.0,0.0,43,0.00,,,0.00,VWS V14.01,2013-04-12 03:58:00,